Torna al catalogo

STARLINK-4747

AttivoComunicazioniVLEO
NORAD 53832·PAYLOAD·🇺🇸 United States

Lanciato Sep 19, 2022 da Cape Canaveral Space Force Station

Loading…

Prossimi Passaggi (prossime 24 ore)

TLE

AggiornatoSource: CelesTrak SupGP

Epoca: Sep 15, 2026, 02:35 UTC

1 53832C 22114Q   26258.10812500 -.00001628  00000+0 -48096-4 0  2588
2 53832  53.1601 164.6668 0001673  74.7142  93.3411 15.34386159    15

Traccia STARLINK-4747 in tempo reale con AllMySat

Download on the App Store